Location: Newark
(48.5156°N, 1.8989°W)
Time: 02:34:12
(UTC+00:00)

Courier 1B - Pass Details

Date: 21 November 2019
Orbit: 963 x 1209 km, 28.3° (Epoch: 10 December)

Event Time Altitude Azimuth Distance (km) Brightness Sun altitude
Rises 06:15:27 0° 224° (SW) 3,830 10.3 -11.2°
Reaches altitude 10° 06:20:17 10° 196° (SSW) 2,814 10.0 -10.5°
Maximum altitude 06:22:40 12° 175° (S) 2,640 10.1 -10.1°
Drops below altitude 10° 06:25:01 10° 154° (SSE) 2,761 10.6 -9.7°
Sets 06:29:38 0° 125° (SE) 3,669 12.3 -9.0°
